Location: Jackson
(42.2460°N, 84.4010°W)
Time: 19:14:13
(UTC-04:00)

Courier 1B Rocket - Pass Details

Date: 12 February 2026
Orbit: 920 x 1201 km, 28.2° (Epoch: 12 March)

Event Time Altitude Azimuth Distance (km) Brightness Sun altitude
Rises 03:05:41 0° 255° (WSW) 3,919 - -49.4°
Reaches altitude 10° 03:09:52 10° 233° (SW) 3,014 - -48.7°
Maximum altitude 03:13:40 15° 202° (SSW) 2,713 - -48.1°
Drops below altitude 10° 03:17:33 10° 171° (S) 3,088 - -47.5°
Sets 03:21:56 0° 149° (SSE) 4,075 - -46.8°
